Weather WX

World > North America > United States > Oregon

Fox, Oregon Regional Weather

Lat: 44.65N, Lon: 119.14W
Wx Zone: ORZ503
Feedback

Fox, OR Regional Weather

Expires:201906250500;;035362
ASUS46 KPQR 250410
RWROR 

OREGON REGIONAL WEATHER ROUNDUP
NATIONAL WEATHER SERVICE PORTLAND OR
900 PM PDT MON JUN 24 2019

NOTE: "FAIR" INDICATES FEW OR NO CLOUDS BELOW 12,000 FEET WITH
NO SIGNIFICANT WEATHER AND/OR OBSTRUCTIONS TO VISIBILITY.


ORZ029>031-041-044-049-050-061>064-502-503-505>511-250500-
EASTERN OREGON

  
CITY           SKY/WX    TMP DP  RH WIND       PRES   REMARKS
MADRAS         CLOUDY    61  37  41 NW5       29.92S                  
REDMOND        CLOUDY    64  28  25 NW9       29.91R                  
BEND           MOCLDY    63  25  23 NW7       29.92S                  
PRINEVILLE     NOT AVBL                                               
KLAMATH FALLS  CLOUDY    64  37  36 W6        29.94R                  
LAKEVIEW       CLOUDY    60  34  37 NW6       29.95R                  
HERMISTON      MOCLDY    68  36  30 SE5       29.80S                  
PENDLETON      MOCLDY    67  27  22 CALM      29.83F                  
JOHN DAY       CLEAR     64  34  33 CALM      29.89R                  
MEACHAM        MOCLDY    54  37  52 CALM      29.92S                  
LA GRANDE      MOCLDY    60  43  53 NW8       29.88S                  
BAKER CITY     PTCLDY    57  44  62 W8        29.88S                  
BURNS          MOCLDY    65  34  31 N6        29.88R                  
ROME             N/A     68  35  29 NE7       29.85R                  
ONTARIO        PTCLDY    73  43  33 N3        29.81S                  
$$
  

SKY/WX - Weather  TMP - Temperature  DP - Dew Point  RH - Relative Humidity
WIND - Wind Direction/Speed PRES - Barometric Pressure VSB - Visibility
WCI - Wind Chill Index E13G22 Wind - East Wind 13 mph/Gusts of 22 mph